Location: Newark
(43.6583°N, 1.6617°E)
Time: 18:59:04
(UTC+00:00)

Tiros 1 - Pass Details

Date: 29 August 2019
Orbit: 630 x 664 km, 48.4° (Epoch: 13 October)

Event Time Altitude Azimuth Distance (km) Brightness Sun altitude
Rises 23:18:56 0° 273° (W) 2,914 - -36.5°
Reaches altitude 10° 23:21:19 10° 279° (W) 2,007 - -36.6°
Maximum altitude 23:25:47 48° 354° (N) 830 - -36.8°
Drops below altitude 10° 23:30:17 10° 69° (ENE) 2,017 - -36.9°
Sets 23:32:41 0° 75° (ENE) 2,930 - -36.9°
